User: anonymous   Login
Location: Bonn
(50.7330°N, 7.1000°E)
Time: 17:21:14
(UTC+01:00)
Language:

Cosmos 1933 Rocket - Orbit

View from above orbital plane
View from above orbital plane
View from above satellite
View from above satellite

Ground track
Ground track

The orbit data is extracted from the following two-line orbital elements,

1 18959U 88020B   17053.88733895  .00000104  00000-0  97682-5 0  9999
2 18959  82.5386  17.6172 0017623 149.6231 210.6010 14.83323483563637
Epoch (UTC): 22 February 2017 21:17:46
Eccentricity: 0.0017623
inclination: 82.5386°
perigee height: 606 km
apogee height: 631 km
right ascension of ascending node: 17.6172°
argument of perigee: 149.6231°
revolutions per day: 14.83323483
mean anomaly at epoch: 210.6010°
orbit number at epoch: 56363

The dashed part of the orbit path shows where the satellite is in the earth's shadow,  

DLR